This is the latest recevied weather packets stored in our database for station/object AI9F. If no packets are shown the sender has not sent any weather packets the latest 10 day(s).
| Time | Temp. | Humidity | Pressure | Rain* | Wind** | Luminosity | Snow |
|---|---|---|---|---|---|---|---|
| 1777423113 | 15.56° C | 92% | 1011.4 hPa | 0 mm | - | 1 W/m² | - |
| 1777422809 | 15.56° C | 91% | 1011.7 hPa | 0 mm | - | 2 W/m² | - |
| 1777422505 | 16.11° C | 91% | 1012 hPa | 0 mm | - | 2 W/m² | - |
| 1777422200 | 16.11° C | 91% | 1012.3 hPa | 0 mm | - | 4 W/m² | - |
| 1777421899 | 16.11° C | 92% | 1012.7 hPa | 0 mm | - | 8 W/m² | - |
| 1777421595 | 15.56° C | 91% | 1012.8 hPa | 0 mm | - | 13 W/m² | - |
| 1777421290 | 16.11° C | 91% | 1012.8 hPa | 0 mm | - | 18 W/m² | - |
| 1777420988 | 16.11° C | 90% | 1013.4 hPa | 1.78 mm | - | 12 W/m² | - |
| 1777420684 | 16.11° C | 90% | 1013.5 hPa | 1.78 mm | - | 14 W/m² | - |
| 1777420380 | 16.11° C | 89% | 1014.2 hPa | 0 mm | - | 12 W/m² | - |
| 1777420076 | 16.11° C | 88% | 1014 hPa | 1.78 mm | - | 10 W/m² | - |
| 1777419773 | 16.67° C | 89% | 1013.6 hPa | 1.78 mm | - | 12 W/m² | - |
| 1777419470 | 16.67° C | 85% | 1013.5 hPa | 0 mm | - | 11 W/m² | - |
| 1777419169 | 16.67° C | 83% | 1013.8 hPa | 0 mm | - | 10 W/m² | - |
| 1777418864 | 17.22° C | 81% | 1014 hPa | 0 mm | - | 11 W/m² | - |
| 1777418561 | 17.22° C | 80% | 1014 hPa | 0 mm | - | 11 W/m² | - |
| 1777418257 | 17.78° C | 77% | 1014.1 hPa | 0 mm | - | 12 W/m² | - |
| 1777417953 | 17.78° C | 77% | 1014.5 hPa | 0 mm | - | 12 W/m² | - |
| 1777417649 | 17.78° C | 75% | 1014.6 hPa | 0 mm | - | 13 W/m² | - |
| 1777417344 | 17.78° C | 76% | 1014.5 hPa | 0 mm | - | 11 W/m² | - |
| 1777417041 | 17.78° C | 77% | 1014.5 hPa | 0 mm | - | 12 W/m² | - |
| 1777416737 | 17.78° C | 77% | 1014.4 hPa | 0 mm | - | 14 W/m² | - |
| 1777416432 | 17.78° C | 77% | 1014.2 hPa | 0 mm | - | 33 W/m² | - |
| 1777416128 | 18.33° C | 76% | 1013.4 hPa | 0 mm | - | 36 W/m² | - |
| 1777415822 | 18.33° C | 75% | 1013.4 hPa | 0 mm | - | 36 W/m² | - |
* Rain latest hour (hover to see other rain measurements)
** Current wind speed in m/s (hover to see current wind gust speed)